Temperature
14 14 15 15 18 20 20 20 20 19 19 18 18 19 20 21 21 20 15 15 15 15 15 15 15 15 15 15 16 16 16 16 16 16 16 16 16 16 16 16 15 15 15 15 15 15 15 15 15
14 14 15 16 19 20 20 20 19 19 18 16 16 17 18 18 16 15 15 15 15 15 14 15 15 15 15 15 15 15 16 16 16 16 16 16 16 16 16 16 16 16 15 15 15 15 15 15 15
14 14 15 18 19 20 20 19 19 18 16 16 17 17 17 17 15 14 14 14 14 14 14 15 15 15 15 15 15 15 15 15 15 16 16 16 16 16 15 16 16 15 15 15 15 15 15 15 15
13 14 15 18 18 19 19 19 18 17 16 16 17 17 15 14 14 14 14 14 14 14 14 14 15 15 15 15 15 15 15 15 15 15 16 16 15 15 15 15 15 15 15 15 15 15 15 15 15
13 15 17 17 18 18 18 17 16 17 17 16 16 17 16 14 14 14 14 14 13 13 13 14 14 14 15 15 15 15 15 15 15 15 15 15 15 15 15 15 15 15 15 15 15 15 15 15 15
14 16 17 18 18 17 17 16 16 17 17 16 16 16 15 13 13 13 13 13 13 13 13 14 14 14 14 14 14 15 15 15 15 15 15 15 15 15 15 15 15 15 15 15 15 15 15 14 14
14 16 17 17 17 17 17 15 16 17 17 16 15 16 15 13 13 13 13 13 13 13 13 13 13 14 14 14 14 14 14 14 15 15 15 15 15 15 15 15 15 15 15 15 15 15 14 14 14
13 15 15 16 16 17 16 14 15 15 16 14 14 16 15 13 13 12 12 12 12 12 13 13 13 13 13 14 14 14 14 14 14 14 14 14 15 14 14 14 14 14 14 14 14 14 14 14 14
12 15 15 16 16 16 15 14 14 13 14 13 13 13 13 13 12 12 12 12 12 12 12 13 13 13 13 13 13 14 14 14 14 14 14 14 14 14 14 14 14 14 14 14 14 14 14 14 14
13 14 15 15 15 15 14 14 13 13 14 13 13 13 12 12 12 11 11 11 12 12 12 12 12 13 13 13 13 13 13 13 13 13 14 14 13 13 14 14 14 14 14 14 14 14 14 14 14
13 14 14 13 13 13 13 13 13 14 15 14 13 13 12 11 11 11 11 11 11 12 12 12 12 13 13 13 13 13 13 13 13 13 13 13 13 13 13 13 13 13 13 13 14 14 14 13 13
13 13 12 13 12 12 13 13 13 13 14 13 13 12 12 11 11 11 11 11 11 11 12 12 12 12 12 12 12 12 12 13 13 13 13 13 13 13 13 13 13 13 13 13 13 13 13 13 13
12 12 12 11 11 11 12 12 13 13 12 12 12 11 11 11 11 11 11 11 11 11 11 12 12 12 12 12 12 12 12 12 12 12 13 13 13 13 13 13 13 13 13 13 13 13 13 13 13
12 12 12 11 11 11 12 12 12 13 12 11 11 11 11 11 11 11 11 11 11 11 11 12 12 12 12 12 12 12 12 12 12 12 12 12 12 12 12 12 12 12 12 12 12 12 12 12 12
11 12 12 12 12 11 12 13 13 12 12 12 11 11 11 11 11 11 11 11 11 11 11 11 11 11 11 11 11 11 11 12 12 12 12 12 12 12 12 12 12 12 12 12 12 12 12 12 12
11 12 13 13 12 11 12 14 14 12 11 12 11 11 11 11 11 11 11 11 11 11 11 11 11 11 11 11 11 11 11 11 11 11 12 12 12 12 12 12 12 12 12 12 11 11 11 11 11
12 13 13 13 12 12 12 14 14 11 11 12 12 11 11 10 10 11 11 11 11 11 11 11 11 11 11 11 11 11 11 11 11 11 11 11 11 11 11 11 11 11 11 11 11 11 11 11 11
12 13 13 13 12 12 12 13 13 12 12 12 12 11 11 10 10 10 11 11 11 11 11 11 11 11 11 10 10 10 11 11 11 11 11 11 11 11 11 11 11 11 11 11 11 11 11 11 11
12 12 13 13 12 11 12 13 13 12 12 12 12 11 11 10 10 10 11 11 11 10 10 11 10 10 10 10 10 10 10 10 10 10 10 11 11 11 11 11 11 11 11 11 11 10 10 10 10
11 12 12 12 11 11 12 12 13 12 12 12 12 11 11 10 10 10 10 11 10 10 10 10 10 10 10 10 10 10 10 10 10 10 10 10 10 10 10 10 10 10 10 10 10 10 10 10 10
11 11 12 11 10 10 11 13 14 12 11 11 11 11 11 10 10 10 10 10 10 10 10 10 10 10 10 10 10 10 9 9 9 9 9 9 10 10 10 10 10 10 10 10 10 10 10 10 9
11 11 11 10 11 12 11 13 14 13 12 12 11 11 11 10 10 10 10 10 10 10 10 10 10 10 10 10 10 9 9 9 9 9 9 9 9 9 9 9 10 10 9 9 9 9 9 9 9
11 10 10 10 11 11 11 12 14 13 12 13 12 11 11 10 10 10 10 10 11 10 10 10 10 9 9 9 9 9 9 9 9 9 9 9 9 9 9 9 9 9 9 9 9 9 9 8 8
9 9 9 10 10 11 12 12 14 14 13 13 13 11 10 10 9 9 10 10 10 10 10 10 9 9 9 9 9 9 9 9 9 9 9 9 9 8 8 8 8 8 8 8 8 8 8 8 8
9 10 10 10 10 12 11 11 14 14 13 13 12 11 10 9 9 9 9 10 10 10 10 10 9 9 9 9 9 8 8 8 8 8 8 8 8 8 8 8 8 8 8 8 8 8 8 8 8
9 11 11 11 12 13 10 11 14 12 11 10 10 10 9 9 9 8 9 9 9 10 10 9 9 9 9 8 8 8 8 8 8 8 8 8 8 8 8 8 7 7 7 7 7 7 7 7 7
9 10 11 11 10 11 12 12 12 11 10 10 9 9 8 8 8 8 8 9 9 9 9 9 9 9 8 8 8 8 8 8 8 7 7 7 7 7 7 7 7 7 7 7 7 7 7 7 7
9 10 9 10 10 12 13 13 14 12 11 10 10 9 9 8 8 8 8 8 8 8 8 8 8 8 8 8 8 8 8 7 7 7 7 7 7 7 7 7 7 7 6 6 6 6 6 6 6
8 8 9 10 11 12 13 14 13 12 11 10 10 9 8 8 8 8 8 8 8 8 8 8 8 8 8 8 7 7 7 7 7 7 7 7 6 6 6 6 6 6 6 6 6 6 6 6 6
9 9 9 10 9 10 12 13 10 10 10 9 9 8 8 7 7 7 7 8 7 7 7 8 7 7 7 7 7 7 7 7 6 6 6 6 6 6 6 6 5 5 5 5 5 5 5 5 5
Wind_Speed
4 2 2 2 4 5 9 7 5 5 4 2 2 4 5 5 3 0 3 3 3 4 5 7 7 8 9 10 10 11 11 12 11 11 11 11 11 11 11 10 9 9 9 10 10 11 11 10 11
3 1 2 3 6 9 9 8 8 6 2 1 2 4 4 4 1 1 2 2 2 3 5 6 7 8 9 10 11 11 12 12 12 11 11 11 10 10 10 10 9 9 9 10 10 10 10 10 10
0 1 3 4 7 10 8 5 6 3 2 3 3 3 3 2 1 1 2 2 2 3 4 6 7 8 9 10 11 12 12 12 12 11 11 10 10 10 10 10 9 9 9 9 9 9 9 9 10
2 2 3 6 11 9 7 4 4 4 4 3 3 3 2 0 0 0 1 2 3 4 4 6 7 8 9 10 11 12 12 12 12 11 11 10 10 10 10 9 9 9 9 9 9 9 9 9 9
1 3 6 8 11 8 6 4 5 6 5 4 5 4 3 1 1 1 2 3 4 4 4 6 6 7 8 10 10 11 12 11 11 11 11 10 10 10 10 9 9 9 9 9 9 8 8 8 9
3 4 7 11 11 8 6 6 6 6 5 4 5 5 3 2 1 2 3 3 4 4 4 6 7 7 7 9 11 11 11 11 11 11 10 10 10 10 10 9 9 9 9 9 8 8 8 8 9
4 4 8 10 9 9 6 5 7 6 7 5 4 4 3 3 2 3 3 3 4 4 4 5 6 7 7 8 10 11 11 11 11 11 10 10 10 10 9 9 9 9 8 8 8 8 7 8 8
2 3 7 9 9 8 5 5 4 7 6 2 4 5 4 3 2 3 3 3 4 4 4 5 6 7 7 8 9 11 11 10 11 11 11 10 10 10 10 9 9 9 9 8 8 7 7 7 7
3 5 9 9 8 6 5 5 3 3 4 4 4 5 4 3 3 4 4 4 4 4 4 4 6 6 6 7 7 10 11 10 10 10 11 9 8 8 8 8 9 9 9 8 8 7 7 6 7
4 7 9 6 6 5 5 6 5 4 6 6 6 5 3 5 6 7 7 6 6 5 5 5 5 6 6 6 7 7 8 9 8 8 8 7 7 7 7 9 9 9 9 8 8 7 6 4 5
5 8 7 6 6 5 6 6 5 7 8 8 8 6 5 7 7 8 8 7 6 6 5 5 5 6 6 5 6 5 6 7 7 7 7 6 7 6 6 6 7 7 7 6 6 5 3 2 3
6 7 7 6 5 5 6 5 6 10 9 6 7 6 7 8 8 8 8 7 6 6 6 5 6 6 6 6 6 5 5 5 6 6 6 6 5 5 5 4 4 4 4 4 3 2 3 3 3
9 7 7 8 7 7 7 9 8 10 8 5 4 6 8 9 8 7 6 6 6 6 6 6 6 6 6 6 5 5 5 5 6 6 6 5 4 4 4 4 4 4 3 3 3 2 3 3 3
6 8 8 8 7 6 8 9 8 9 6 4 5 6 7 8 8 7 7 7 7 6 6 6 6 6 6 6 5 5 4 5 6 6 6 6 5 4 4 4 4 3 3 3 2 2 2 2 3
4 6 8 8 7 4 6 9 10 9 6 6 6 6 6 7 7 7 8 7 7 6 6 6 6 6 6 6 6 5 5 5 5 5 6 6 5 5 4 4 3 3 3 3 2 3 2 2 3
5 6 7 6 6 5 7 11 8 6 7 8 7 6 6 6 7 7 6 6 6 6 6 5 5 7 6 5 5 5 5 5 5 5 5 6 5 5 4 3 3 3 3 2 2 2 2 2 2
6 7 9 6 6 5 8 9 6 5 7 8 8 7 7 6 7 7 6 6 6 6 7 6 6 7 6 6 5 5 5 4 4 5 5 5 5 5 4 3 3 3 3 2 2 2 2 2 2
8 8 8 8 5 7 9 11 8 6 7 8 8 7 7 7 7 7 7 7 7 6 6 7 7 8 7 6 4 4 4 4 4 4 4 5 4 4 4 3 3 3 2 2 2 2 2 2 2
7 8 9 7 3 6 11 13 11 7 7 8 7 7 7 7 6 6 6 7 7 7 7 7 7 8 7 6 5 4 4 4 3 3 4 4 4 4 4 3 3 3 2 3 3 2 3 2 2
9 9 9 5 2 5 9 13 10 9 9 10 9 8 8 6 6 6 7 7 8 8 7 7 7 8 8 6 5 4 4 3 4 3 3 3 4 4 3 3 3 3 2 3 3 3 2 2 1
12 12 10 6 2 4 6 8 8 6 7 8 8 8 8 9 8 8 8 8 8 8 8 7 8 8 8 8 5 5 4 4 3 4 3 3 3 4 3 3 3 3 3 3 3 3 3 2 1
10 9 8 6 5 4 4 5 6 6 7 7 8 8 8 8 8 8 8 8 8 8 7 7 7 8 8 8 8 9 7 6 5 5 4 4 4 4 3 3 3 3 2 3 3 3 3 3 2
5 3 6 6 6 5 5 6 6 5 8 9 9 9 8 8 8 8 8 8 8 8 7 8 8 8 8 9 9 9 7 5 5 5 5 4 4 3 3 3 3 3 2 2 2 2 2 2 2
5 5 4 3 5 7 8 8 7 6 8 8 9 8 7 7 7 7 7 7 7 7 8 8 9 9 9 9 9 9 9 8 7 7 6 5 3 3 3 3 3 3 2 3 2 2 3 2 2
7 6 3 4 6 7 6 8 8 4 4 6 7 7 6 6 7 7 7 8 7 8 8 8 10 9 9 9 9 9 8 8 8 7 6 5 4 3 4 4 3 3 3 3 3 2 2 2 3
12 10 7 6 7 5 5 9 5 1 2 3 4 5 5 5 6 7 8 8 7 8 9 9 10 9 9 8 8 7 7 6 5 6 6 5 4 4 4 4 4 4 4 3 3 2 3 3 3
10 10 5 2 2 4 6 6 5 3 3 4 4 5 5 5 5 6 6 7 7 8 9 9 9 9 8 8 8 8 7 6 6 6 5 4 4 3 4 4 4 4 4 3 3 3 3 3 3
5 7 6 6 6 7 7 8 6 7 7 6 5 5 5 5 5 5 6 6 6 7 7 8 8 8 8 7 7 6 6 6 6 5 5 5 4 4 4 4 4 4 4 4 4 3 4 4 4
8 8 7 6 5 6 7 5 2 5 6 6 5 5 4 5 5 5 5 6 6 6 7 7 7 7 7 6 6 6 6 6 5 5 5 5 5 5 5 5 5 5 5 5 5 4 5 5 4
9 10 11 8 7 6 7 5 2 3 4 4 4 3 3 4 4 5 5 6 6 7 7 7 7 7 6 6 6 6 5 5 5 5 5 4 5 5 5 5 5 5 5 5 6 5 5 6 5
Wind_Direction
332 308 236 207 207 221 230 216 210 191 198 207 220 231 233 231 239 291 64 103 112 142 158 161 161 165 165 157 153 148 145 141 138 135 133 129 127 127 126 123 120 119 118 119 118 114 111 110 109
325 272 208 207 223 226 225 214 210 210 184 165 206 229 229 226 282 41 100 93 123 141 156 162 153 163 161 157 155 150 147 143 140 137 133 129 127 127 128 125 121 119 119 119 117 116 114 112 110
259 290 212 203 222 230 220 198 206 194 187 197 200 233 245 220 147 126 81 116 137 145 152 149 154 159 158 156 157 153 150 146 143 139 135 131 128 126 127 126 122 119 117 119 120 118 118 116 115
210 185 204 222 225 228 228 194 190 188 194 207 216 219 212 1 134 108 118 148 151 149 148 143 150 155 156 155 155 156 150 147 144 140 137 133 129 125 123 122 121 120 118 117 118 119 122 121 121
207 208 210 224 231 224 224 224 204 209 206 202 216 232 225 211 268 158 146 155 156 152 141 139 137 148 151 155 153 150 150 147 145 142 138 134 128 123 122 118 120 122 119 116 112 116 125 124 123
188 213 222 228 225 221 219 215 213 225 222 214 221 235 234 200 189 164 161 170 158 153 140 136 123 122 139 153 152 149 146 142 141 141 138 134 128 124 120 118 118 121 121 117 111 107 119 125 123
211 213 231 232 230 225 215 201 215 225 225 220 220 226 206 194 180 175 175 174 161 156 147 143 146 138 127 137 148 147 143 141 138 135 131 127 124 121 118 116 119 120 120 117 113 107 115 126 128
225 213 226 229 232 230 205 199 224 229 233 217 216 224 221 204 180 183 174 174 170 165 158 151 147 143 143 144 141 141 135 133 133 127 122 120 121 121 117 116 112 113 110 109 110 108 110 121 129
210 221 229 226 231 231 206 211 217 241 223 221 230 257 270 194 190 184 180 180 175 170 162 151 148 143 146 143 139 142 134 129 130 127 123 129 133 130 125 112 111 109 106 106 106 106 104 115 129
207 225 230 232 237 242 230 230 216 217 229 236 243 254 228 194 196 195 194 192 186 182 173 164 156 150 149 145 144 149 146 138 139 139 139 138 132 124 118 111 110 109 107 105 103 104 114 130 143
209 229 233 235 246 254 242 243 225 227 240 242 242 230 208 200 204 204 201 198 193 183 178 169 167 158 147 151 146 149 150 142 136 133 134 134 127 124 123 127 122 119 121 114 113 122 116 116 133
221 235 241 241 242 247 244 239 240 232 247 265 254 225 206 205 204 206 204 201 194 186 176 170 165 161 156 154 148 153 152 146 139 137 136 132 129 130 130 127 128 129 125 119 119 111 107 112 119
226 237 241 247 255 251 245 242 251 248 257 265 242 210 209 208 206 206 207 202 198 192 182 171 169 157 153 152 149 151 153 151 144 140 139 134 130 134 130 126 125 123 119 123 109 107 103 98 96
229 238 252 253 252 242 242 249 246 248 246 222 213 213 215 211 208 204 202 201 200 194 183 173 171 158 152 152 150 149 153 150 144 141 141 140 134 131 131 127 124 119 116 114 118 113 109 99 87
226 241 250 241 239 232 233 244 235 243 227 220 222 221 220 212 206 207 201 200 201 197 184 173 168 158 155 150 152 145 150 151 142 138 141 139 137 136 135 130 126 118 114 113 112 112 109 103 99
210 227 239 222 217 213 220 245 231 227 224 230 233 231 224 218 212 212 206 200 199 192 179 172 168 159 155 145 148 146 145 145 139 136 137 138 139 142 140 131 122 122 122 121 118 121 120 107 103
210 228 236 228 207 209 221 250 239 233 233 235 236 232 226 222 219 212 203 199 194 190 179 173 169 160 154 140 136 139 134 134 134 137 138 139 141 147 140 132 124 133 132 129 126 123 129 115 95
215 225 231 233 212 224 236 251 254 245 238 237 235 231 225 222 219 210 201 191 185 186 182 172 167 158 148 139 135 134 130 132 131 136 136 138 140 141 135 135 135 135 139 139 138 124 114 115 108
231 229 242 243 231 239 246 256 255 247 236 233 228 225 223 224 217 198 191 180 176 178 180 173 168 161 155 151 153 158 156 148 140 137 134 141 144 145 143 144 144 146 149 145 142 133 124 111 117
227 234 244 249 230 247 262 262 257 242 233 231 229 224 218 213 204 188 182 179 181 181 179 174 175 170 168 163 160 165 153 149 143 145 138 141 146 151 155 157 155 153 152 149 147 146 140 122 132
226 231 236 240 261 241 274 265 236 226 224 230 231 226 218 210 202 189 182 182 183 182 180 177 182 177 172 163 151 144 140 139 147 158 156 154 153 157 160 162 161 162 165 165 168 166 162 159 161
230 227 230 230 227 236 236 266 240 215 215 220 220 214 211 207 203 196 185 183 184 184 181 178 181 178 171 167 169 171 171 170 176 169 164 160 163 163 160 166 163 167 167 167 173 178 184 179 187
223 194 205 218 226 249 230 246 255 206 222 220 216 211 208 202 199 197 193 187 184 180 177 178 177 179 178 177 177 177 175 169 161 159 160 162 164 166 168 172 168 168 166 167 164 171 183 191 198
164 142 148 188 217 242 225 226 258 215 220 213 207 205 204 200 199 199 195 186 181 177 175 176 176 177 178 177 176 177 173 168 164 167 167 166 165 171 178 184 181 179 175 177 177 184 189 195 196
183 169 177 196 212 235 193 221 248 237 221 220 208 203 196 191 190 191 190 186 182 178 174 174 169 171 173 174 176 179 178 175 175 174 174 170 171 182 191 192 193 190 184 181 183 187 193 199 198
194 198 200 211 221 218 195 228 244 246 231 227 213 194 180 179 181 185 186 182 179 173 172 173 173 174 174 175 179 182 181 179 178 178 178 179 181 187 188 192 197 194 189 187 187 193 201 203 203
185 207 229 222 218 231 221 237 257 219 208 192 187 182 183 180 178 178 177 174 172 170 172 174 173 173 175 176 178 179 178 177 180 182 184 184 183 180 185 191 195 197 195 194 193 201 209 210 213
210 181 181 198 204 231 234 232 223 197 203 193 188 189 187 179 175 173 167 168 168 167 167 171 173 172 172 174 178 178 177 178 181 184 187 186 185 186 188 193 199 201 202 202 204 209 216 216 217
175 185 200 201 226 230 239 230 192 200 194 189 190 193 187 175 172 168 160 160 159 158 161 166 170 170 170 171 175 175 175 178 182 188 191 191 190 194 196 200 203 203 205 207 209 213 215 217 219
208 201 194 200 211 225 246 245 103 214 192 182 177 172 170 163 160 157 153 151 155 158 161 166 169 170 171 171 173 175 176 180 186 193 195 193 196 202 203 203 206 209 211 212 215 218 222 223 225
Height
1519 1519 1521 1523 1523 1518 1513 1511 1513 1514 1515 1517 1518 1518 1515 1515 1516 1520 1520 1517 1518 1519 1521 1521 1523 1524 1526 1527 1528 1529 1531 1532 1532 1533 1534 1535 1535 1536 1537 1538 1539 1539 1540 1540 1541 1542 1542 1543 1543
1518 1520 1523 1523 1517 1513 1510 1510 1513 1513 1516 1518 1518 1518 1517 1516 1517 1517 1516 1516 1518 1519 1520 1521 1522 1523 1525 1526 1527 1529 1530 1531 1532 1533 1534 1535 1535 1536 1537 1538 1539 1540 1540 1541 1541 1542 1543 1543 1544
1518 1520 1522 1518 1513 1507 1506 1509 1511 1515 1517 1518 1518 1517 1517 1516 1517 1517 1516 1516 1517 1519 1520 1520 1521 1523 1524 1525 1527 1528 1529 1531 1532 1533 1534 1534 1535 1536 1537 1538 1539 1540 1540 1541 1542 1542 1543 1544 1544
1519 1522 1521 1516 1510 1508 1508 1510 1513 1515 1517 1517 1517 1516 1517 1517 1516 1516 1515 1516 1517 1518 1519 1520 1521 1522 1523 1524 1526 1527 1529 1530 1531 1532 1533 1534 1535 1536 1537 1538 1539 1540 1540 1541 1542 1543 1543 1544 1545
1518 1519 1516 1512 1509 1508 1511 1513 1514 1513 1514 1515 1516 1514 1515 1515 1514 1514 1514 1515 1516 1517 1518 1519 1520 1521 1522 1523 1525 1526 1528 1529 1531 1532 1533 1534 1535 1536 1536 1537 1538 1539 1540 1541 1542 1543 1543 1544 1545
1519 1517 1511 1507 1506 1509 1511 1513 1513 1512 1513 1514 1515 1513 1513 1514 1513 1513 1514 1515 1515 1516 1517 1517 1518 1519 1521 1523 1524 1525 1527 1528 1530 1531 1532 1534 1535 1535 1536 1537 1538 1539 1540 1541 1542 1543 1543 1544 1545
1518 1514 1508 1505 1506 1507 1509 1512 1512 1511 1511 1512 1513 1512 1511 1512 1512 1512 1513 1513 1514 1515 1515 1516 1517 1518 1520 1521 1523 1525 1526 1528 1529 1531 1532 1533 1534 1535 1536 1537 1538 1539 1540 1541 1542 1543 1543 1544 1545
1515 1514 1509 1506 1506 1505 1509 1510 1510 1510 1510 1511 1512 1510 1510 1511 1510 1511 1511 1512 1513 1514 1514 1515 1516 1517 1519 1520 1522 1524 1525 1527 1529 1530 1532 1533 1534 1535 1536 1537 1538 1539 1540 1541 1542 1542 1543 1544 1545
1515 1514 1506 1505 1505 1504 1508 1509 1509 1510 1509 1509 1509 1509 1508 1508 1508 1509 1510 1511 1511 1512 1513 1514 1515 1516 1517 1519 1521 1523 1525 1526 1528 1529 1531 1532 1534 1535 1536 1537 1538 1539 1540 1541 1541 1542 1543 1544 1544
1514 1508 1504 1506 1506 1505 1507 1507 1507 1508 1506 1506 1506 1506 1506 1506 1506 1507 1508 1509 1509 1510 1511 1512 1513 1514 1516 1517 1519 1521 1524 1526 1528 1529 1530 1532 1533 1534 1535 1537 1538 1539 1540 1540 1541 1542 1542 1543 1544
1510 1506 1505 1506 1507 1506 1506 1506 1506 1505 1503 1502 1503 1503 1503 1504 1504 1505 1506 1507 1508 1509 1510 1511 1512 1513 1514 1516 1518 1520 1522 1524 1526 1528 1530 1531 1532 1533 1535 1536 1537 1538 1539 1540 1540 1541 1542 1542 1543
1509 1506 1506 1506 1506 1506 1505 1504 1504 1502 1500 1500 1500 1500 1500 1501 1501 1502 1504 1505 1506 1507 1508 1509 1510 1511 1513 1515 1517 1519 1521 1523 1524 1527 1528 1530 1531 1533 1534 1535 1536 1537 1538 1539 1540 1540 1541 1541 1542
1506 1505 1505 1505 1505 1504 1503 1502 1501 1498 1498 1498 1498 1498 1498 1498 1499 1501 1502 1503 1504 1505 1506 1507 1509 1510 1512 1513 1515 1518 1519 1522 1524 1525 1527 1529 1530 1532 1533 1534 1535 1537 1537 1538 1539 1539 1540 1540 1541
1504 1504 1504 1503 1502 1502 1501 1499 1499 1494 1495 1495 1496 1496 1496 1496 1497 1498 1499 1500 1502 1503 1504 1505 1506 1507 1509 1511 1514 1516 1518 1520 1522 1524 1526 1528 1530 1531 1532 1533 1534 1535 1536 1537 1538 1538 1539 1539 1540
1504 1503 1501 1499 1499 1499 1500 1495 1493 1492 1493 1493 1494 1494 1494 1494 1495 1496 1497 1498 1500 1501 1502 1503 1504 1506 1508 1510 1512 1514 1517 1519 1520 1523 1525 1527 1529 1530 1531 1532 1533 1534 1535 1536 1537 1537 1538 1538 1539
1502 1500 1495 1494 1496 1497 1499 1488 1487 1490 1491 1491 1491 1492 1492 1492 1492 1493 1495 1496 1498 1499 1500 1502 1503 1505 1507 1509 1511 1512 1515 1517 1519 1521 1523 1525 1527 1529 1530 1531 1532 1533 1534 1535 1536 1536 1537 1537 1538
1496 1492 1490 1490 1493 1494 1493 1484 1485 1487 1488 1488 1488 1489 1489 1490 1490 1491 1492 1493 1495 1497 1499 1501 1501 1503 1505 1507 1509 1511 1513 1515 1517 1520 1522 1524 1526 1527 1529 1530 1531 1532 1533 1534 1534 1535 1536 1536 1536
1489 1487 1487 1486 1489 1491 1488 1483 1482 1484 1485 1484 1485 1486 1487 1487 1487 1488 1490 1491 1493 1495 1497 1498 1500 1502 1504 1506 1508 1510 1512 1514 1516 1518 1520 1522 1524 1526 1527 1528 1530 1531 1532 1532 1533 1534 1534 1535 1535
1488 1486 1485 1485 1488 1489 1484 1480 1478 1480 1482 1482 1482 1483 1484 1484 1485 1486 1487 1489 1491 1493 1495 1496 1497 1499 1502 1504 1506 1509 1511 1513 1515 1517 1518 1520 1522 1524 1525 1526 1528 1529 1530 1531 1532 1532 1533 1533 1533
1489 1487 1484 1486 1489 1488 1483 1478 1475 1476 1477 1478 1478 1480 1480 1481 1482 1483 1485 1487 1489 1491 1492 1494 1495 1498 1500 1503 1506 1507 1510 1511 1514 1515 1517 1518 1520 1522 1523 1524 1526 1527 1528 1529 1530 1530 1531 1531 1532
1486 1484 1483 1485 1488 1487 1484 1473 1469 1471 1474 1475 1475 1476 1477 1478 1479 1481 1482 1484 1486 1488 1490 1492 1494 1496 1499 1501 1504 1506 1508 1509 1511 1513 1515 1516 1518 1520 1521 1522 1524 1525 1526 1527 1528 1528 1529 1529 1530
1481 1483 1485 1486 1485 1480 1482 1473 1463 1465 1469 1470 1471 1472 1473 1475 1476 1478 1479 1481 1483 1486 1488 1490 1492 1494 1497 1499 1501 1503 1505 1507 1509 1511 1513 1515 1516 1517 1519 1520 1521 1522 1524 1525 1526 1526 1527 1528 1528
1480 1483 1484 1485 1483 1481 1478 1475 1459 1463 1463 1463 1465 1468 1469 1471 1473 1475 1477 1479 1480 1483 1485 1487 1490 1492 1494 1497 1500 1501 1503 1506 1507 1509 1511 1513 1514 1515 1517 1518 1519 1520 1521 1522 1523 1524 1524 1525 1525
1483 1484 1485 1485 1483 1480 1471 1471 1456 1455 1455 1456 1460 1464 1466 1468 1470 1472 1474 1476 1478 1480 1482 1485 1487 1489 1492 1494 1497 1499 1501 1503 1505 1507 1508 1510 1512 1513 1514 1515 1517 1518 1519 1520 1521 1521 1522 1522 1523
1479 1478 1481 1481 1479 1467 1469 1468 1453 1450 1454 1455 1458 1460 1463 1464 1466 1468 1470 1472 1474 1477 1479 1481 1484 1486 1489 1491 1494 1496 1498 1500 1502 1504 1505 1507 1509 1511 1512 1513 1514 1515 1516 1517 1518 1518 1519 1519 1520
1472 1469 1469 1467 1462 1458 1471 1461 1448 1452 1455 1457 1458 1459 1460 1462 1464 1465 1467 1469 1471 1474 1476 1479 1481 1484 1486 1489 1491 1493 1496 1498 1499 1501 1503 1505 1506 1508 1509 1510 1511 1512 1513 1514 1515 1515 1516 1516 1517
1468 1468 1465 1465 1467 1461 1454 1452 1449 1451 1453 1455 1456 1457 1458 1460 1461 1463 1465 1467 1469 1471 1473 1476 1479 1481 1484 1486 1488 1491 1493 1495 1497 1499 1500 1502 1504 1505 1506 1507 1508 1509 1510 1511 1511 1512 1513 1513 1513
1466 1464 1468 1466 1464 1454 1446 1445 1439 1445 1447 1451 1453 1455 1456 1458 1459 1461 1463 1465 1467 1469 1472 1474 1477 1479 1481 1483 1486 1488 1490 1492 1494 1496 1497 1499 1501 1502 1503 1504 1505 1506 1506 1507 1508 1508 1509 1509 1509
1465 1466 1462 1458 1455 1449 1443 1438 1438 1440 1444 1447 1450 1452 1454 1456 1458 1459 1461 1463 1465 1467 1470 1472 1474 1477 1479 1481 1483 1485 1487 1489 1491 1493 1495 1496 1497 1498 1499 1500 1501 1502 1503 1504 1504 1505 1505 1505 1505
1455 1453 1455 1455 1456 1453 1443 1439 1442 1443 1445 1447 1449 1451 1453 1455 1456 1458 1460 1461 1463 1466 1468 1470 1472 1474 1476 1479 1481 1483 1485 1487 1488 1490 1491 1492 1494 1495 1496 1497 1498 1498 1499 1500 1500 1501 1501 1501 1501